Fayetteville, NC

10:03 AM EST on February 09, 2016 (GMT -0500)
Fayetteville Regional-Grannis

Weather History for KFAY - December, 2013

Change the Weather History Date:

Monday, December 23, 2013

  Actual Average Record
Temperature  
Mean Temperature 64 °F 43 °F  
Max Temperature 76 °F 53 °F 78 °F (1967)
Min Temperature 51 °F 34 °F 9 °F (1935)
Degree Days  
Heating Degree Days 1 22  
Month to date heating degree days 328 435  
Since 1 July heating degree days 844 883  
Cooling Degree Days 0 0  
Month to date cooling degree days 17 0  
Year to date cooling degree days 1955 1991  
Growing Degree Days 13 (Base 50)    
Moisture  
Dew Point 63 °F    
Average Humidity 84    
Maximum Humidity 93    
Minimum Humidity 74    
Precipitation  
Precipitation 0.50 in 0.08 in 1.12 in (1967)
Month to date precipitation 2.53 2.10  
Year to date precipitation 41.61 43.91  
Sea Level Pressure  
Sea Level Pressure 30.05 in    
Wind  
Wind Speed 10 mph (WSW)    
Max Wind Speed 22 mph    
Max Gust Speed 26 mph    
Visibility 8 miles    
Events Rain    
T = Trace of Precipitation, MM = Missing Value Source: NWS Daily Summary

Daily Weather History Graph

Daily Weather History Graph

Search for Another Location

Airport or City:

Trip Planner

Search our weather history database for the weather conditions in past years. The results will help you decide how hot, cold, wet, or windy it might be!

Date:

Astronomy

Dec. 23, 2013 Rise Set
Actual Time 7:20 AM EST 5:08 PM EST
Civil Twilight 6:52 AM EST 5:37 PM EST
Nautical Twilight 6:20 AM EST 6:08 PM EST
Astronomical Twilight 5:49 AM EST 6:39 PM EST
Moon 11:03 PM EST (12/23) 10:57 AM EST (12/23)
Length of Visible Light 10h 44m
Length of Day
9h 48m
Waning Gibbous, 68% of the Moon is Illuminated
Dec 23
Waning Gibbous
Dec 25
Last Quarter
Jan 1
New
Jan 7
First Quarter
Jan 15
Full

Hourly Weather History & Observations

Time (EST) Temp. Dew Point Humidity Pressure Visibility Wind Dir Wind Speed Gust Speed Precip Events Conditions
12:53 AM 70.0 °F 66.0 °F 87% 30.06 in 10.0 mi South 8.1 mph - N/A   Overcast
1:19 AM 69.8 °F 66.2 °F 88% 30.09 in 10.0 mi SSW 8.1 mph - N/A   Mostly Cloudy
1:53 AM 71.1 °F 66.0 °F 84% 30.07 in 10.0 mi SSW 8.1 mph - N/A   Overcast
2:53 AM 71.1 °F 66.9 °F 87% 30.05 in 10.0 mi SSW 9.2 mph - N/A   Overcast
3:53 AM 73.0 °F 68.0 °F 84% 30.04 in 10.0 mi SSW 12.7 mph - N/A   Overcast
4:53 AM 72.0 °F 68.0 °F 87% 30.03 in 9.0 mi South 10.4 mph - 0.00 in   Overcast
5:53 AM 73.0 °F 68.0 °F 84% 30.02 in 10.0 mi South 12.7 mph - 0.00 in   Overcast
6:02 AM 73.4 °F 66.2 °F 78% 30.04 in 10.0 mi South 15.0 mph - N/A   Overcast
6:18 AM 73.4 °F 66.2 °F 78% 30.04 in 10.0 mi SSW 16.1 mph 24.2 mph N/A   Overcast
6:53 AM 73.0 °F 66.9 °F 81% 30.04 in 10.0 mi South 15.0 mph 23.0 mph N/A   Overcast
7:48 AM 71.6 °F 68.0 °F 88% 30.07 in 2.5 mi SSW 13.8 mph 20.7 mph 0.03 in Rain Rain
7:53 AM 72.0 °F 68.0 °F 87% 30.05 in 4.0 mi South 11.5 mph 23.0 mph 0.03 in Rain Light Rain
8:04 AM 71.6 °F 68.0 °F 88% 30.07 in 10.0 mi SSW 12.7 mph - 0.00 in   Overcast
8:53 AM 73.0 °F 68.0 °F 84% 30.06 in 10.0 mi SSW 12.7 mph - 0.01 in   Overcast
9:53 AM 73.9 °F 68.0 °F 82% 30.07 in 10.0 mi SW 12.7 mph 20.7 mph N/A   Overcast
10:34 AM 75.2 °F 66.2 °F 73% 30.08 in 10.0 mi SSW 18.4 mph 24.2 mph N/A   Mostly Cloudy
10:53 AM 75.9 °F 66.0 °F 71% 30.06 in 10.0 mi SW 15.0 mph 23.0 mph N/A   Mostly Cloudy
11:07 AM 71.6 °F 62.6 °F 73% 30.08 in 10.0 mi West 17.3 mph 26.5 mph N/A   Overcast
11:11 AM 71.6 °F 62.6 °F 73% 30.09 in 2.5 mi WSW 16.1 mph 26.5 mph 0.04 in Rain Rain
11:15 AM 69.8 °F 62.6 °F 78% 30.09 in 1.8 mi WSW 16.1 mph - 0.06 in Rain Rain
11:21 AM 69.8 °F 62.6 °F 78% 30.08 in 3.0 mi WSW 12.7 mph - 0.07 in Rain Light Rain
11:53 AM 70.0 °F 64.9 °F 84% 30.04 in 10.0 mi WSW 9.2 mph - 0.07 in   Overcast
12:53 PM 71.1 °F 64.0 °F 78% 30.02 in 10.0 mi WSW 6.9 mph - N/A   Mostly Cloudy
1:30 PM 69.8 °F 64.4 °F 83% 30.02 in 1.8 mi West 8.1 mph - 0.05 in Rain Rain
1:40 PM 68.0 °F 64.4 °F 88% 30.03 in 2.5 mi WSW 10.4 mph - 0.07 in Rain Light Rain
1:53 PM 68.0 °F 64.9 °F 90% 30.00 in 1.8 mi WSW 8.1 mph - 0.12 in Rain Rain
2:00 PM 68.0 °F 64.4 °F 88% 30.01 in 3.0 mi WSW 5.8 mph - 0.01 in Rain Light Rain
2:53 PM 68.0 °F 66.0 °F 93% 29.99 in 9.0 mi SW 4.6 mph - 0.03 in Rain Light Rain
3:53 PM 68.0 °F 66.0 °F 93% 29.99 in 10.0 mi SW 5.8 mph - 0.02 in Rain Light Rain
4:10 PM 68.0 °F 66.2 °F 94% 30.02 in 10.0 mi West 8.1 mph - 0.00 in   Overcast
4:18 PM 68.0 °F 66.2 °F 94% 30.02 in 1.8 mi WSW 13.8 mph 19.6 mph 0.05 in Rain Rain
4:30 PM 68.0 °F 64.4 °F 88% 30.02 in 2.5 mi WSW 10.4 mph - 0.11 in Rain Light Rain
4:37 PM 68.0 °F 64.4 °F 88% 30.02 in 7.0 mi WSW 11.5 mph - 0.11 in Rain Light Rain
4:51 PM 68.0 °F 64.4 °F 88% 30.02 in 10.0 mi WSW 9.2 mph - 0.11 in   Overcast
4:53 PM 68.0 °F 64.9 °F 90% 30.00 in 10.0 mi WSW 9.2 mph - 0.11 in   Overcast
5:07 PM 64.4 °F 62.6 °F 94% 30.03 in 10.0 mi NW 19.6 mph 24.2 mph 0.00 in Rain Light Rain
5:19 PM 64.4 °F 60.8 °F 88% 30.04 in 10.0 mi NW 12.7 mph - 0.00 in   Overcast
5:46 PM 62.6 °F 60.8 °F 94% 30.06 in 6.0 mi NW 13.8 mph - 0.00 in Rain Light Rain
5:53 PM 61.0 °F 59.0 °F 93% 30.06 in 7.0 mi NNW 15.0 mph - 0.00 in Rain Light Rain
6:53 PM 57.9 °F 55.9 °F 93% 30.08 in 9.0 mi North 9.2 mph - 0.01 in   Overcast
7:42 PM 57.2 °F 55.4 °F 94% 30.09 in 5.0 mi North 8.1 mph - 0.03 in Rain Light Rain
7:53 PM 57.9 °F 55.9 °F 93% 30.09 in 6.0 mi North 8.1 mph - 0.03 in Rain Light Rain
8:45 PM 53.6 °F 50.0 °F 88% 30.12 in 9.0 mi North 15.0 mph - 0.03 in Rain Light Rain
8:53 PM 53.1 °F 50.0 °F 89% 30.11 in 10.0 mi North 10.4 mph - 0.03 in   Overcast
9:53 PM 52.0 °F 50.0 °F 93% 30.11 in 7.0 mi North 8.1 mph - 0.02 in Rain Light Rain
10:28 PM 51.8 °F 48.2 °F 88% 30.13 in 10.0 mi North 4.6 mph - 0.01 in   Overcast
10:53 PM 52.0 °F 48.0 °F 86% 30.11 in 10.0 mi North 12.7 mph - 0.02 in   Overcast
11:53 PM 51.1 °F 48.0 °F 89% 30.10 in 10.0 mi North 6.9 mph - 0.00 in Rain Light Rain